Location: Newark
(41.8083°N, 72.2500°W)
Time: 10:21:32
(UTC+00:00)

Explorer 11/Cluster Stage 4 - Pass Details

Date: 10 December 2021
Orbit: 467 x 1255 km, 28.8° (Epoch: 23 January)

Event Time Altitude Azimuth Distance (km) Brightness Sun altitude
Rises 03:45:10 0° 210° (SSW) 2,716 - -67.7°
Reaches altitude 10° 03:49:13 10° 171° (S) 1,997 - -68.2°
Maximum altitude 03:50:15 11° 158° (SSE) 2,001 - -68.3°
Drops below altitude 10° 03:51:19 10° 145° (SE) 2,097 - -68.4°
Sets 03:56:08 0° 109° (ESE) 3,267 - -68.8°
